Regional Weather Roundup
Issued by NWS Austin/San Antonio, TX

Home | Current Version | Previous Version | Text Only | Print | Product List | Glossary On
Versions: 1 2 3 4 5 6 7 8 9 10 11 12 13 14 15 16 17 18 19 20 21 22 23 24 25 26 27 28 29 30 31 32 33 34 35 36 37 38 39 40 41 42 43 44 45 46 47 48 49 50
000
ASUS44 KEWX 212311
RWREWX
SOUTH TEXAS REGIONAL WEATHER ROUNDUP
NATIONAL WEATHER SERVICE AUSTIN/SAN ANTONIO TX
600 PM CDT MON OCT 21 2019

NOTE: "FAIR" INDICATED FEW OR NO CLOUDS BELOW 12,000 FEET WITH NO
SIGNIFICANT WEATHER AND/OR OBSTRUCTIONS TO VISIBILITY.

* - THESE STATIONS ARE NOT NWS OR FAA STATIONS...AND ARE NOT SUBJECT
    TO NWS AND FAA QUALITY CONTROL.

TXZ171-172-183>190-220000-
TEXAS HILL COUNTRY AND EDWARDS PLATEAU

CITY           SKY/WX    TMP DP  RH WIND       PRES   REMARKS
JUNCTION       SUNNY     77  31  18 VRB5      29.95R
*LLANO         SUNNY     77  30  18 CALM      29.95R
BURNET         SUNNY     73  30  20 CALM      29.94R
*HORSESHOE BAY SUNNY     75  30  19 NW5       29.91S
*KERRVILLE     SUNNY     77  25  14 CALM      29.92S
*FREDERICKSBRG SUNNY     74  29  18 N5        29.94R
*ROCKSPRINGS   SUNNY     75  30  19 N7        30.00R
*BOERNE        SUNNY     73  34  23 CALM      29.92S
*CASTROVILLE   SUNNY     82  32  16 E6        29.89S
HONDO          SUNNY     84  31  14 E5        29.87F
*UVALDE        SUNNY     84  30  14 W8        29.88S
DEL RIO        SUNNY     87  21   9 NW6       29.87R
LAUGHLIN AFB   SUNNY     85  17   8 NW7       29.87S
SPOFFORD       SUNNY     86  22   9 N6        29.82S
*EAGLE PASS    SUNNY     88  21   8 N7        29.86S
CARRIZO SPRGS  SUNNY     86  34  15 NE6       29.85S
*FAITH RANCH   SUNNY     88  36  15 NE8       29.86S
$$

TXZ173-191>194-202-209-217>225-228-220000-
CENTRAL AND SOUTH CENTRAL TEXAS

CITY           SKY/WX    TMP DP  RH WIND       PRES   REMARKS
GEORGETOWN     SUNNY     76  36  23 N7        29.92R
AUSTIN/BERGSTM MOSUNNY   78  35  21 N12       29.88S
AUSTIN/MABRY   SUNNY     77  31  18 N3        29.90S
*AUSTIN/EXEC   SUNNY     75  32  20 N8        29.90S
*LAGO VISTA    SUNNY     72  37  27 CALM      29.92S
SAN MARCOS     SUNNY     77  37  23 NE7       29.89S
NEW BRAUNFELS  SUNNY     80  35  19 NE6       29.87S
RANDOLPH AFB   SUNNY     79  35  20 N8        29.88S
SEGUIN         SUNNY     77  33  20 NE8       29.92R
KELLY FIELD    SUNNY     80  35  20 NE6       29.86S
SAN ANTONIO    MOSUNNY   79  34  19 N7        29.89S
STINSON FIELD  SUNNY     79  36  21 NE6       29.86S
PLEASANTON     SUNNY     80  37  21 NE7       29.87S
*LA GRANGE     CLEAR     79  40  24 N5        29.86R
*GIDDINGS      CLEAR     80  37  21 N5        29.89R
*GONZALES      SUNNY     79  39  23 N5        29.87R
$$

TXZ163>164-176>182-195>201-210>213-226-227-235-220000-
SOUTHEAST TEXAS

CITY           SKY/WX    TMP DP  RH WIND       PRES   REMARKS
COLLEGE STN    CLEAR     78  38  23 N10       29.87R
*BRYAN         CLEAR     76  41  28 N6        29.89R
*CALDWELL      CLEAR     76  38  25 N7        29.89R
*CROCKETT      CLEAR     73  43  33 N5        29.90R
*BRENHAM       CLEAR     78  40  25 N6        29.88R
HUNTSVILLE     CLEAR     76  43  30 NW5       29.87R
CONROE         CLEAR     76  52  43 N6        29.87R
HOUSTON BUSH   PTCLDY    78  56  46 N8        29.84R
HOUSTON HOBBY  FAIR      79  57  46 N9        29.84R
*HOUSTON SW AP FAIR      77  58  52 N5        29.85R
PEARLAND       FAIR      79  59  50 N7        29.86R
HOUSTON HOOKS  FAIR      76  50  40 N7        29.86R
ELLINGTON FLD  PTCLDY    75  61  60 N12       29.83R
SUGAR LAND     FAIR      78  54  43 N12       29.84R
*HOUSTON EXEC  FAIR      77  50  38 N7        29.87R
*CLEVELAND MUN FAIR      74  60  61 CALM      29.87R
*WHARTON       CLEAR     78  47  33 N8        29.85R
*COLUMBUS      FAIR      77  35  21 N5        29.87R
*EAGLE LAKE    CLEAR     79  46  31 N7        29.85
$$

TXZ214>216-236>238-220000-
THE UPPER TEXAS COAST

CITY           SKY/WX    TMP DP  RH WIND       PRES   REMARKS
*ORANGE        FAIR      72  67  84 N5        29.86R
PORT ARTHUR    FAIR      73  64  73 N7        29.84R
GALVESTON      FAIR      76  66  71 N12       29.84R
ANGLETON       FAIR      78  63  59 N6        29.84R
*BAY CITY      CLEAR     80  62  55 N8        29.84R
PALACIOS       CLEAR     77  59  53 N10       29.83R
$$

TXZ229>234-239>247-220000-
TEXAS COASTAL BEND AND RIO GRANDE PLAINS

CITY           SKY/WX    TMP DP  RH WIND       PRES   REMARKS
VICTORIA       SUNNY     81  52  36 N7        29.84R
*BEEVILLE      SUNNY     86  38  18 N8        29.84R
ROCKPORT       SUNNY     82  60  47 NE12      29.83R
*PORT ARANSAS  SUNNY     80  61  51 N13       29.84R
*PORT LAVACA   CLEAR     82  56  41 NE10      29.84R
*INGLESIDE     SUNNY     83  62  49 NE10      29.83R
CORPUS CHRISTI PTSUNNY   86  53  32 N13       29.82R
CORPUS NAS     PTSUNNY   80  65  59 NE14      29.82R
*ROBSTOWN      SUNNY     85  48  27 NE9       29.83R
ALICE          SUNNY     87  45  23 N10       29.82R
KINGSVILLE NAS MOSUNNY   87  54  32 N10       29.82R
COTULLA        SUNNY     87  31  13 VRB3      29.86S
LAREDO         SUNNY     88  40  18 NE10      29.83S
$$

TXZ248>255-220000-
DEEP SOUTH TEXAS

CITY           SKY/WX    TMP DP  RH WIND       PRES   REMARKS
BROWNSVILLE    PTSUNNY   81  71  71 N15G23    29.79R
PORT ISABEL    FAIR      79  69  71 N18       29.79R
HARLINGEN      SUNNY     78  70  76 NE13      29.80R
*HEBBRONVILLE  SUNNY     86  50  28 CALM      29.84S
MCALLEN        SUNNY     85  69  58 NE15G21   29.80R
*WESLACO       MOSUNNY   79  66  63 NE9       29.80
FALFURRIAS     SUNNY     89  55  31 N6        29.81R
EDINBURG       FAIR      82  64  53 NE12      29.81R
*ZAPATA        NOT AVBL
$$

TXZ213>215-236>238-242>244-246-247-251-254-255-220000-
CMAN STATIONS

STATION/POSITION TIME  TEMP    WIND        PRES    WAVE
                       AIR SEA DIR/SP/G            HT/PER
                 (UTC) (F)     (DEG/KT/KT) (MB)    (FT/S)
SABINE PASS      2230   71 78   10/ 12/ 15 1011.2
SEA RIM ST PARK  2200   72     360/ 11/ 13 1009.2
NORTH JETTY/GLS  2224   73 77   10/ 11/ 14 1008.8
EAGLE POINT      2230   75 76  350/  7/ 10 1009.2
MORGANS POINT    2230   77 78  340/ 10/ 12 1010.0
PORT O`CONNOR    2230   78 81  360/ 15/ 18 1009.7
PORT ARANSAS     2200   78 79  360/ 15/ 17 1009.8
MALAQUITE BEACH  2230   79 81  360/ 15/ 16 1009.4
BAFFIN BAY       2230   78 82  360/ 14/ 16 1010.0
PORT ISABEL      2230   79 81   10/ 12/ 18 1008.7
$$



USA.gov is the U.S. government's official web portal to all federal, state and local government web resources and services.